Regional Weather Roundup
Issued by NWS

Home | Current Version | Previous Version | Graphics & Text | Print | Product List | Glossary Off
Versions: 1 2 3 4 5 6 7 8 9 10 11 12 13 14 15 16 17 18 19 20 21 22 23 24 25 26 27 28 29 30 31 32 33 34 35 36 37 38 39 40 41 42 43 44 45 46 47 48 49 50

543
ASUS43 KMKX 281921
RWRWI

WISCONSIN REGIONAL WEATHER ROUNDUP
NATIONAL WEATHER SERVICE MILWAUKEE/SULLIVAN WI
200 PM CDT WED SEP 28 2016

NOTE: "FAIR" INDICATES FEW OR NO CLOUDS BELOW 12,000 FEET WITH NO
SIGNIFICANT WEATHER AND/OR OBSTRUCTIONS TO VISIBILITY.

WIZ001-002-006>008-014>016-023>028-282000-
NORTHWEST WISCONSIN

CITY           SKY/WX    TMP DP  RH WIND       PRES   REMARKS
SUPERIOR ARPT  CLOUDY    59  50  74 E14       30.24R
ASHLAND        CLOUDY    58  51  78 NE12      30.22R
HAYWARD        CLOUDY    57  50  77 N16       30.20R
SIREN          CLOUDY    58  49  71 N9        30.21R
CUMBERLAND     CLOUDY    55  48  76 N12G17    30.19R
RICE LAKE      CLOUDY    62  49  62 N17       30.19R
CHETEK         NOT AVBL
LADYSMITH      CLOUDY    61  51  71 N12       30.17R
EAU CLAIRE     CLOUDY    65  49  56 NE10      30.12R
MENOMONIE      MOSUNNY   67  47  49 N15G25    30.13S
NEW RICHMOND   CLOUDY    61  48  62 N13G20    30.19R
OSCEOLA        CLOUDY    60  50  69 N6        30.23R
$$

WIZ003>005-009-010-017-018-282000-
NORTH CENTRAL WISCONSIN

CITY           SKY/WX    TMP DP  RH WIND       PRES   REMARKS
MANITOWISH WTR NOT AVBL
ARBOR VITAE    CLOUDY    59  50  72 N7G18     30.15R
WOODRUFF       CLOUDY    59  50  72 N7G18     30.15R
RHINELANDER    CLOUDY    61  49  64 VRB7      30.13R
EAGLE RIVER    DRIZZLE   57  49  76 NE8       30.14R
LAND O LAKES   CLOUDY    58  51  77 NE9       30.17R
PHILLIPS       CLOUDY    57  52  81 N13G20    30.15R
TOMAHAWK       CLOUDY    59  47  63 NE5       30.14R
MEDFORD        CLOUDY    59  48  67 NE10      30.12R
MERRILL        CLOUDY    61  50  67 NE8       30.12R
$$

WIZ029-030-035-036-043>047-282000-
CENTRAL WISCONSIN

CITY           SKY/WX    TMP DP  RH WIND       PRES   REMARKS
WAUSAU         PTSUNNY   61  48  62 N8        30.09R
MOSINEE        CLOUDY    61  48  63 NE13G21   30.11R
MARSHFIELD     CLOUDY    60  48  64 N16G24    30.09R
STEVENS POINT  PTSUNNY   56  53  87 NE10      30.10R
WAUPACA        PTSUNNY   60  52  73 N9G21     30.08R
WAUTOMA        CLOUDY    62  49  62 N15G23    30.06R
WISC RAPIDS    CLOUDY    61  50  67 NE10G18   30.09R
CAMP DOUGLAS   PTSUNNY   61  50  67 N7        30.07R
$$

WIZ011>013-019>022-031-037>040-048>050-282000-
NORTHEAST WISCONSIN

CITY           SKY/WX    TMP DP  RH WIND       PRES   REMARKS
ANTIGO         PTSUNNY   61  47  61 N16       30.11R
SHAWANO        CLOUDY    60  52  73 NE12G18   30.09R
OCONTO         NOT AVBL
STURGEON BAY   MOSUNNY   61  49  64 E8        30.08R
GREEN BAY      CLOUDY    61  52  72 NE16G23   30.06R
MANITOWOC      PTSUNNY   61  49  64 NE8       30.04R
APPLETON       PTSUNNY   57  48  72 NE12      30.04R
CLINTONVILLE   NOT AVBL
OSHKOSH        CLOUDY    59  51  75 NE15      30.03R
$$

WIZ032>034-041-042-053>061-282000-
SOUTHWEST WISCONSIN

CITY           SKY/WX    TMP DP  RH WIND       PRES   REMARKS
LA CROSSE      CLOUDY    60  55  83 N8        30.10R
SPARTA         CLOUDY    60  53  76 N7        30.09R
VIROQUA        CLOUDY    62  48  60 N13G18    30.07R
BOSCOBEL       CLOUDY    61  50  67 N7        30.06R
PRAIRIE DU CHI CLOUDY    60  48  64 N7        30.07R
PLATTEVILLE    CLOUDY    60  51  71 N13G18    30.04S
$$

WIZ056-057-062-063-064-067-068-282000-
SOUTH CENTRAL WISCONSIN

CITY           SKY/WX    TMP DP  RH WIND       PRES   REMARKS
REEDSBURG      NOT AVBL
BARABOO/DELLS  PTSUNNY   60  47  64 NE14G20   30.04R
LONE ROCK      CLOUDY    62  49  62 N14       30.05R
MINERAL POINT  CLOUDY    63  52  67 N12       30.03S
MADISON        PTSUNNY   60  52  74 N13       30.00F
MIDDLETON      CLOUDY    58  52  81 N16       30.02S
WATERTOWN      CLOUDY    58  50  75 NE12G18   30.00R
MONROE         CLOUDY    59  46  63 N13       30.00R
JANESVILLE     LGT RAIN  55  54  94 N6        29.99R
$$

WIZ051-052-058>065-066-070>072-282000-
SOUTHEAST WISCONSIN

CITY           SKY/WX    TMP DP  RH WIND       PRES   REMARKS
MILWAUKEE      CLOUDY    61  50  67 N10       29.98S
WAUKESHA       CLOUDY    57  50  77 NE7       30.00R
MILWAUKEE/TIMM MOSUNNY   61  48  63 N8        29.99R
RACINE         CLOUDY    59  50  72 N15       29.98S
BURLINGTON     PTSUNNY   58  48  68 N9        29.98R
KENOSHA        CLOUDY    61  49  64 N10G20    29.96S
FOND DU LAC    CLOUDY    60  51  72 NE14      30.03R
SHEBOYGAN      MOSUNNY   61  50  67 NE14      30.02R
WEST BEND      MOSUNNY   61  46  59 NE12      30.00R
JUNEAU         CLOUDY    57  51  82 N14       30.03R
$$

LSZ147-162-282000-
LAKE SUPERIOR

STATION/POSITION TIME  TEMP    WIND        PRES    WAVE
                       AIR SEA DIR/SP/G            HT/PER
                 (UTC) (F)     (DEG/KT/KT) (MB)    (FT/S)
W MID LAKE BUOY  1850   55 51   50/ 10/ 12 1023.0R   4/ 6
DEVILS ISLAND    1900   53      10/ 12/ 13 1024.1R
SAXON HARBOR     1840   56      20/ 16/ 19 1022.7R
$$

LMZ867-665-643>646-282000-
LAKE MICHIGAN

STATION/POSITION TIME  TEMP    WIND        PRES    WAVE
                       AIR SEA DIR/SP/G            HT/PER
                 (UTC) (F)     (DEG/KT/KT) (MB)    (FT/S)
CHAMBERS ISLAND  1800   60      30/ 17/ 23 1017.6R
S GREEN BAY BUOY 1900   60 62   80/ 17/ 21 1017.7
N MID LAKE BUOY  1850   60 66   50/ 16/ 17 1018.1R   2/ 4
NORTHPORT PIER   1800   62      40/ 17/ 20 1017.9R
SISTER BAY       1708   66      80/ 10/ 20   N/A
KEWAUNEE LAKESHO 1900   60      40/  8/ 12 1017.2R
SHEBOYGAN LAKESH 1900   58      20/ 15/ 17 1016.3R
PORT WASHINGTON  1840   58      40/  7/ 10 1016.6R
ATWATER BUOY     1900   54 54  360/ 12/ 14 1015.5R
MILWAUKEE LAKESH 1910   56      20/ 14/ 16   N/A
S MID LAKE BUOY  1850   61 69   50/ 19/ 23 1012.9R   2/ 3
KENOSHA   LAKESH 1900   57      10/ 14/ 16 1014.2S
$$

TC  - TEMPERATURE IN CELSIUS
VSB - VISIBILITY IN STATUTE MILES
WCI - WIND CHILL INDEX
HX  - HEAT INDEX





USA.gov is the U.S. government's official web portal to all federal, state and local government web resources and services.